When you browse on this site, cookies collect data to enhance your experience and personalize the content and advertising you see.
Visit our Privacy Policy to learn more. By continuing to use the site, you agree to this use of cookies and data.
  • In France
  • List of Countries
  • For 7 days
  • Water Temperature
  • Satellite Maps
  • Weather Map
  • Weather Widgets
  • user-avatar
    Login

    Hourly Weather Sheleleg

    Today, 19 February, Tuesday

    Time Temperature Precipitation Wind Pressure Humidity
    00:00 -4°C° 0 mm 4 mps 756 mmHg 71%
    01:00 -5°C° 0 mm 5 mps 756 mmHg 71%
    02:00 -4°C° 0 mm 5 mps 755 mmHg 71%
    03:00 -4°C° 0 mm 5 mps 755 mmHg 75%
    04:00 -4°C° 0 mm 5 mps 754 mmHg 78%
    05:00 -4°C° 0 mm 5 mps 753 mmHg 81%
    06:00 -4°C° 0 mm 5 mps 753 mmHg 83%
    07:00 -2°C° 0 mm 5 mps 753 mmHg 85%
    08:00 -2°C° 0 mm 4 mps 752 mmHg 87%
    09:00 -2°C° 0 mm 4 mps 752 mmHg 87%
    10:00 -1°C° 0 mm 4 mps 751 mmHg 86%
    11:00 0°C° 0 mm 4 mps 751 mmHg 86%
    12:00 0°C° 0 mm 4 mps 750 mmHg 85%
    13:00 0°C° 0 mm 4 mps 750 mmHg 85%
    14:00 +1°C° 0 mm 4 mps 749 mmHg 84%
    15:00 +1°C° 0 mm 4 mps 748 mmHg 85%
    16:00 +1°C° 0 mm 4 mps 748 mmHg 86%
    17:00 0°C° 0 mm 4 mps 747 mmHg 87%
    18:00 0°C° 0 mm 4 mps 746 mmHg 87%
    19:00 0°C° 0 mm 4 mps 745 mmHg 88%
    20:00 0°C° 0 mm 5 mps 745 mmHg 89%
    21:00 0°C° 0 mm 4 mps 744 mmHg 89%
    22:00 0°C° 0 mm 4 mps 743 mmHg 89%
    23:00 +1°C° 0 mm 4 mps 743 mmHg 89%

    Tomorrow, 20 February, Wednesday

    Time Temperature Precipitation Wind Pressure Humidity
    00:00 0°C° 0.3 mm 4 mps 742 mmHg 89%
    01:00 0°C° 0.3 mm 4 mps 742 mmHg 90%
    02:00 0°C° 0.3 mm 4 mps 742 mmHg 90%
    03:00 0°C° 0.1 mm 4 mps 742 mmHg 91%
    04:00 0°C° 0.1 mm 4 mps 741 mmHg 92%
    05:00 0°C° 0.1 mm 4 mps 741 mmHg 92%
    06:00 0°C° 0.1 mm 4 mps 741 mmHg 91%
    07:00 +1°C° 0.1 mm 4 mps 741 mmHg 90%
    08:00 +1°C° 0.1 mm 5 mps 741 mmHg 89%
    09:00 +1°C° 0 mm 5 mps 741 mmHg 88%
    10:00 +1°C° 0 mm 5 mps 741 mmHg 87%
    11:00 +1°C° 0 mm 5 mps 740 mmHg 85%
    12:00 +1°C° 0.1 mm 5 mps 740 mmHg 85%
    13:00 +1°C° 0.1 mm 5 mps 740 mmHg 84%
    14:00 +1°C° 0.1 mm 5 mps 740 mmHg 84%
    15:00 +1°C° 0.4 mm 5 mps 740 mmHg 84%
    16:00 0°C° 0.4 mm 5 mps 740 mmHg 84%
    17:00 0°C° 0.4 mm 4 mps 739 mmHg 84%
    18:00 -1°C° 0.2 mm 5 mps 740 mmHg 84%
    19:00 -1°C° 0.2 mm 5 mps 740 mmHg 85%
    20:00 -2°C° 0.2 mm 5 mps 741 mmHg 85%
    21:00 -4°C° 0.3 mm 5 mps 741 mmHg 85%
    22:00 -4°C° 0.3 mm 6 mps 742 mmHg 85%
    23:00 -4°C° 0.3 mm 6 mps 742 mmHg 85%

    Day after tomorrow, 21 February, Thursday

    Time Temperature Precipitation Wind Pressure Humidity
    00:00 -4°C° 0.2 mm 6 mps 743 mmHg 83%
    01:00 -4°C° 0.2 mm 7 mps 744 mmHg 80%
    02:00 -4°C° 0.2 mm 7 mps 745 mmHg 77%
    03:00 -5°C° 0 mm 6 mps 745 mmHg 77%
    04:00 -6°C° 0 mm 6 mps 746 mmHg 76%
    05:00 -6°C° 0 mm 6 mps 746 mmHg 75%
    06:00 -6°C° 0.1 mm 6 mps 747 mmHg 74%
    07:00 -6°C° 0.1 mm 6 mps 748 mmHg 74%
    08:00 -8°C° 0.1 mm 6 mps 748 mmHg 74%
    09:00 -8°C° 0.1 mm 6 mps 749 mmHg 72%
    10:00 -6°C° 0.1 mm 6 mps 750 mmHg 70%
    11:00 -6°C° 0.1 mm 6 mps 751 mmHg 69%
    12:00 -6°C° 0.1 mm 6 mps 752 mmHg 67%
    13:00 -6°C° 0.1 mm 6 mps 752 mmHg 66%
    14:00 -6°C° 0.1 mm 6 mps 753 mmHg 65%
    15:00 -8°C° 0 mm 6 mps 754 mmHg 66%
    16:00 -8°C° 0 mm 6 mps 755 mmHg 67%
    17:00 -8°C° 0 mm 5 mps 756 mmHg 68%
    18:00 -8°C° 0 mm 5 mps 757 mmHg 68%
    19:00 -10°C° 0 mm 5 mps 758 mmHg 68%
    20:00 -10°C° 0 mm 5 mps 759 mmHg 68%
    21:00 -11°C° 0 mm 5 mps 759 mmHg 67%
    22:00 -11°C° 0 mm 5 mps 760 mmHg 67%
    23:00 -11°C° 0 mm 5 mps 761 mmHg 67%

    22 February, Friday

    Time Temperature Precipitation Wind Pressure Humidity
    00:00 -11°C° 0 mm 4 mps 761 mmHg 68%
    01:00 -11°C° 0 mm 4 mps 762 mmHg 69%
    02:00 -11°C° 0 mm 4 mps 763 mmHg 70%
    03:00 -11°C° 0 mm 4 mps 764 mmHg 71%
    04:00 -11°C° 0 mm 4 mps 764 mmHg 73%
    05:00 -11°C° 0 mm 4 mps 765 mmHg 75%
    06:00 -11°C° 0 mm 4 mps 765 mmHg 76%
    07:00 -10°C° 0 mm 3 mps 766 mmHg 77%
    08:00 -10°C° 0 mm 3 mps 767 mmHg 79%
    09:00 -10°C° 0 mm 3 mps 767 mmHg 72%
    10:00 -10°C° 0 mm 4 mps 767 mmHg 66%
    11:00 -9°C° 0 mm 4 mps 767 mmHg 60%
    12:00 -8°C° 0 mm 4 mps 767 mmHg 59%
    13:00 -8°C° 0 mm 4 mps 767 mmHg 58%
    14:00 -7°C° 0 mm 5 mps 767 mmHg 57%
    15:00 -7°C° 0 mm 5 mps 768 mmHg 62%
    16:00 -8°C° 0 mm 5 mps 768 mmHg 67%
    17:00 -8°C° 0 mm 5 mps 768 mmHg 72%
    18:00 -8°C° 0 mm 4 mps 769 mmHg 73%
    19:00 -9°C° 0 mm 4 mps 769 mmHg 74%
    20:00 -9°C° 0 mm 4 mps 770 mmHg 74%
    21:00 -9°C° 0 mm 4 mps 770 mmHg 76%
    22:00 -9°C° 0 mm 3 mps 770 mmHg 77%
    23:00 -9°C° 0 mm 3 mps 771 mmHg 79%

    23 February, Saturday

    Time Temperature Precipitation Wind Pressure Humidity
    00:00 -8°C° 0 mm 2 mps 771 mmHg 82%
    01:00 -9°C° 0 mm 2 mps 771 mmHg 85%
    02:00 -8°C° 0 mm 1 mps 771 mmHg 88%
    03:00 -8°C° 0 mm 1 mps 771 mmHg 87%
    04:00 -8°C° 0 mm 1 mps 770 mmHg 87%
    05:00 -8°C° 0 mm 1 mps 770 mmHg 86%
    06:00 -8°C° 0 mm 1 mps 770 mmHg 85%
    07:00 -7°C° 0 mm 1 mps 769 mmHg 84%
    08:00 -7°C° 0 mm 1 mps 769 mmHg 82%
    09:00 -7°C° 0.1 mm 1 mps 769 mmHg 82%
    10:00 -6°C° 0.1 mm 1 mps 768 mmHg 82%
    11:00 -7°C° 0.1 mm 2 mps 768 mmHg 81%
    12:00 -6°C° 0.4 mm 2 mps 767 mmHg 84%
    13:00 -6°C° 0.4 mm 2 mps 767 mmHg 86%
    14:00 -6°C° 0.4 mm 2 mps 767 mmHg 88%
    15:00 -6°C° 0.1 mm 2 mps 767 mmHg 88%
    16:00 -6°C° 0.1 mm 2 mps 767 mmHg 88%
    17:00 -6°C° 0.1 mm 2 mps 766 mmHg 88%
    18:00 -6°C° 0 mm 2 mps 767 mmHg 90%
    19:00 -6°C° 0 mm 2 mps 767 mmHg 92%
    20:00 -6°C° 0 mm 1 mps 768 mmHg 94%
    21:00 -6°C° 0 mm 1 mps 768 mmHg 94%
    22:00 -7°C° 0 mm 2 mps 768 mmHg 94%
    23:00 -7°C° 0 mm 2 mps 769 mmHg 95%

    24 February, Sunday

    Time Temperature Precipitation Wind Pressure Humidity
    00:00 -8°C° 0 mm 2 mps 769 mmHg 95%
    01:00 -8°C° 0 mm 2 mps 769 mmHg 95%
    02:00 -8°C° 0 mm 2 mps 769 mmHg 95%
    03:00 -8°C° 0 mm 2 mps 770 mmHg 95%
    04:00 -8°C° 0 mm 2 mps 770 mmHg 95%
    05:00 -8°C° 0 mm 2 mps 770 mmHg 95%
    06:00 -8°C° 0 mm 2 mps 770 mmHg 94%
    07:00 -7°C° 0 mm 2 mps 770 mmHg 94%
    08:00 -7°C° 0 mm 2 mps 770 mmHg 93%
    09:00 -7°C° 0 mm 3 mps 769 mmHg 90%
    10:00 -6°C° 0 mm 3 mps 769 mmHg 86%
    11:00 -4°C° 0 mm 3 mps 769 mmHg 83%
    12:00 -4°C° 0 mm 3 mps 768 mmHg 82%
    13:00 -3°C° 0 mm 4 mps 768 mmHg 81%
    14:00 -2°C° 0 mm 4 mps 767 mmHg 80%
    15:00 -2°C° 0 mm 4 mps 766 mmHg 82%
    16:00 -3°C° 0 mm 4 mps 765 mmHg 84%
    17:00 -3°C° 0 mm 4 mps 765 mmHg 85%
    18:00 -3°C° 0.2 mm 4 mps 764 mmHg 87%
    19:00 -2°C° 0.2 mm 5 mps 763 mmHg 88%
    20:00 -2°C° 0.2 mm 5 mps 762 mmHg 89%
    21:00 -2°C° 0.1 mm 5 mps 761 mmHg 90%
    22:00 -1°C° 0.1 mm 4 mps 760 mmHg 90%
    23:00 -1°C° 0.1 mm 4 mps 760 mmHg 91%
    Show more